Home   Weather   Nashville   Past weeks
Flag for USA

Past Weather in Nashville, Tennessee, USA — Yesterday and Last 2 Weeks

Now
84 °F

Partly sunny.


Feels Like: 85 °F
Forecast: 82 / 69 °F
Wind: 13 mph from Northwest

Location: Nashville International Airport

Current Time: Jun 20, 2019 at 6:53:45 pm

Latest Report: Jun 20, 2019 at 5:53 pm


Visibility: 10 mi

Pressure: 29.80 "Hg

Humidity: 49%

Dew Point: 63 °F

Location of NashvilleLocation

Past Weather in Nashville — Graph

°F

Nashville Temperature Yesterday

Maximum temperature yesterday: 88 °F (at 12:53 pm)
Minimum temperature yesterday: 70 °F (at 9:53 pm)
Average temperature yesterday: 78 °F

High & Low Weather Summary for the Past Weeks

 TemperatureHumidityPressure
High92 °F (Jun 16, 4:53 pm)91% (Jun 6, 11:22 pm)30.22 "Hg (Jun 6, 11:22 pm)
Low53 °F (Jun 14, 4:53 am)25% (Jun 14, 2:53 pm)29.65 "Hg (Jun 20, 3:53 am)
Average75 °F69%29.90 "Hg
* Reported Jun 5 4:53 pm — Jun 20 4:53 pm, Nashville. Weather by CustomWeather, © 2019

Note: Actual official high and low records may vary slightly from our data, if they occured in-between our weather recording intervals... More about our weather records

Advertising

Nashville Weather History for the Previous 24 Hours

Scroll right to see more
 ConditionsComfort  
Time TempWeatherWind HumidityBarometerVisibility
4:53 pm
Thu, Jun 20
84 °FPartly sunny.10 mph53%29.79 "Hg10 mi
3:53 pm85 °FBroken clouds.10 mph53%29.78 "Hg10 mi
2:53 pm82 °FBroken clouds.6 mph58%29.78 "Hg10 mi
1:53 pm83 °FPartly sunny.9 mph61%29.78 "Hg10 mi
12:53 pm79 °FMostly cloudy.8 mph67%29.78 "Hg10 mi
11:53 am78 °FPartly sunny.8 mph69%29.78 "Hg10 mi
11:14 am76 °FBroken clouds.6 mph74%29.80 "Hg10 mi
10:53 am76 °FBroken clouds.8 mph77%29.77 "Hg10 mi
9:53 am72 °FLight rain. Mostly cloudy.6 mph81%29.76 "Hg10 mi
8:53 am71 °FLight rain. Cloudy.6 mph81%29.78 "Hg8 mi
8:23 am72 °FPartly sunny.5 mph78%29.79 "Hg10 mi
7:53 am72 °FBroken clouds.8 mph78%29.76 "Hg10 mi
6:53 am71 °FCloudy.8 mph84%29.72 "Hg10 mi
5:53 am72 °FCloudy.8 mph84%29.73 "Hg10 mi
4:53 am74 °FBroken clouds.7 mph79%29.71 "Hg10 mi
3:53 am75 °FMostly cloudy.9 mph82%29.65 "Hg10 mi
2:53 am75 °FMostly cloudy.7 mph85%29.65 "Hg10 mi
1:53 am73 °FPassing clouds.6 mph88%29.66 "Hg10 mi
12:53 am71 °FPartly cloudy.5 mph90%29.67 "Hg10 mi
12:02 am71 °FThundershowers. Passing clouds.3 mph90%29.72 "Hg10 mi
11:19 pm
Wed, Jun 19
71 °FThunderstorms. Mostly cloudy.5 mph87%29.74 "Hg10 mi
10:53 pm71 °FOvercast.5 mph87%29.70 "Hg10 mi
9:53 pm70 °FPassing clouds.6 mph90%29.70 "Hg10 mi
9:14 pm71 °FPassing clouds.8 mph87%29.74 "Hg10 mi
8:53 pm72 °FThunderstorms. Passing clouds.No wind84%29.69 "Hg10 mi
7:53 pm74 °FThunderstorms. Fog.14 mph76%29.70 "Hg4 mi
6:53 pm85 °FBroken clouds.5 mph55%29.68 "Hg10 mi
Weather by CustomWeather, © 2019

See weather overview